| time (UTC) | temp F | wind direction | speed MPH | gust MPH | rain 1hr in | rain 24hr in | rain mn in | humidity % | barometer mb |
| 20260504231529 | 55 | 208 | 3.0 | 7.0 | 0.00 | 0.00 | 0.00 | 71 | 1023.7 |
| 20260504230040 | 54 | 333 | 3.0 | 5.0 | 0.00 | 0.00 | 0.00 | 72 | 1023.7 |
| 20260504224533 | 54 | 207 | 4.0 | 5.0 | 0.00 | 0.00 | 0.00 | 72 | 1023.5 |
| 20260504223031 | 55 | 323 | 2.0 | 5.0 | 0.00 | 0.00 | 0.00 | 71 | 1023.3 |
| 20260504221528 | 55 | 331 | 4.0 | 8.0 | 0.00 | 0.00 | 0.00 | 71 | 1023.2 |
| 20260504220028 | 55 | 345 | 3.0 | 5.0 | 0.00 | 0.00 | 0.00 | 71 | 1023.1 |
| 20260504214529 | 55 | 318 | 2.0 | 4.0 | 0.00 | 0.00 | 0.00 | 71 | 1023.2 |
| 20260504213033 | 55 | 24 | 2.0 | 5.0 | 0.00 | 0.00 | 0.00 | 71 | 1023.1 |
| 20260504211530 | 55 | 192 | 1.0 | 4.0 | 0.00 | 0.00 | 0.00 | 72 | 1023.0 |
| 20260504210028 | 55 | 172 | 1.0 | 2.0 | 0.00 | 0.00 | 0.00 | 71 | 1023.0 |
| 20260504204624 | 55 | 172 | 0.0 | 1.0 | 0.00 | 0.00 | 0.00 | 71 | 1023.0 |
| 20260504201530 | 56 | 172 | 0.0 | 1.0 | 0.00 | 0.00 | 0.00 | 69 | 1022.8 |
| 20260504200030 | 56 | 172 | 1.0 | 4.0 | 0.00 | 0.00 | 0.00 | 69 | 1022.9 |
| 20260504183030 | 54 | 0 | 0.0 | 0.0 | 0.00 | 0.00 | 0.00 | 71 | 1022.8 |
| 20260504181530 | 54 | 0 | 0.0 | 0.0 | 0.00 | 0.00 | 0.00 | 72 | 1022.7 |
| 20260504180029 | 53 | 0 | 0.0 | 0.0 | 0.00 | 0.00 | 0.00 | 72 | 1022.8 |
| 20260504174528 | 53 | 0 | 0.0 | 0.0 | 0.00 | 0.00 | 0.00 | 72 | 1022.8 |
| 20260504173028 | 53 | 0 | 0.0 | 0.0 | 0.00 | 0.00 | 0.00 | 70 | 1022.9 |
| 20260504171542 | 54 | 0 | 0.0 | 0.0 | 0.00 | 0.00 | 0.00 | 67 | 1022.7 |
| 20260504081528 | 77 | 142 | 3.0 | 8.0 | 0.00 | 0.00 | 0.00 | 36 | 1021.6 |
| 20260504070109 | 79 | 12 | 4.0 | 9.0 | 0.00 | 0.00 | 0.00 | 35 | 1021.6 |
| 20260504060129 | 79 | 262 | 4.0 | 11.0 | 0.00 | 0.00 | 0.00 | 36 | 1021.8 |
| 20260504050249 | 78 | 50 | 5.0 | 14.0 | 0.00 | 0.00 | 0.00 | 37 | 1022.3 |
| 20260504044531 | 78 | 337 | 6.0 | 13.0 | 0.00 | 0.00 | 0.00 | 37 | 1022.6 |
| 20260504043042 | 78 | 200 | 4.0 | 11.0 | 0.00 | 0.00 | 0.00 | 38 | 1023.0 |
| 20260504040113 | 76 | 328 | 6.0 | 12.0 | 0.00 | 0.00 | 0.00 | 40 | 1023.7 |
| 20260504040035 | 76 | 328 | 6.0 | 12.0 | 0.00 | 0.00 | 0.00 | 40 | 1023.7 |
| 20260504034530 | 75 | 67 | 8.0 | 16.0 | 0.00 | 0.00 | 0.00 | 41 | 1023.7 |
| 20260504033030 | 75 | 36 | 7.0 | 13.0 | 0.00 | 0.00 | 0.00 | 41 | 1024.1 |
| 20260504031535 | 74 | 336 | 5.0 | 11.0 | 0.00 | 0.00 | 0.00 | 43 | 1024.4 |
| 20260504030030 | 73 | 313 | 6.0 | 14.0 | 0.00 | 0.00 | 0.00 | 43 | 1024.5 |
| 20260504024550 | 73 | 339 | 6.0 | 13.0 | 0.00 | 0.00 | 0.00 | 45 | 1024.6 |
| 20260504023030 | 71 | 128 | 6.0 | 14.0 | 0.00 | 0.00 | 0.00 | 49 | 1024.8 |
| 20260504021533 | 70 | 82 | 7.0 | 13.0 | 0.00 | 0.00 | 0.00 | 51 | 1025.0 |
| 20260504020046 | 68 | 267 | 6.0 | 16.0 | 0.00 | 0.00 | 0.00 | 53 | 1025.3 |
| 20260504014536 | 67 | 333 | 6.0 | 14.0 | 0.00 | 0.00 | 0.00 | 55 | 1025.5 |
| 20260504013028 | 65 | 348 | 6.0 | 12.0 | 0.00 | 0.00 | 0.00 | 58 | 1025.6 |
| 20260504011638 | 63 | 340 | 7.0 | 13.0 | 0.00 | 0.00 | 0.00 | 60 | 1025.6 |
| 20260504010028 | 62 | 342 | 5.0 | 13.0 | 0.00 | 0.00 | 0.00 | 63 | 1025.9 |
| 20260504004528 | 61 | 329 | 4.0 | 11.0 | 0.00 | 0.00 | 0.00 | 65 | 1025.9 |
| 20260504003034 | 59 | 340 | 4.0 | 11.0 | 0.00 | 0.00 | 0.00 | 67 | 1025.8 |
| 20260504001536 | 58 | 281 | 5.0 | 11.0 | 0.00 | 0.00 | 0.00 | 69 | 1025.6 |
| 20260504000136 | 57 | 28 | 6.0 | 12.0 | 0.00 | 0.00 | 0.00 | 70 | 1025.6 |
| 20260503234531 | 56 | 247 | 6.0 | 11.0 | 0.00 | 0.00 | 0.00 | 72 | 1025.5 |